Regional Weather Roundup
Issued by NWS

Home | Current Version | Previous Version | Graphics & Text | Print | Product List | Glossary Off
Versions: 1 2 3 4 5 6 7 8 9 10 11 12 13 14 15 16 17 18 19 20 21 22 23 24 25 26 27 28 29 30 31 32 33 34 35 36 37 38 39 40 41 42 43 44 45 46 47 48 49 50

000
ASUS43 KMKX 281511
RWRWI

WISCONSIN REGIONAL WEATHER ROUNDUP
NATIONAL WEATHER SERVICE MILWAUKEE/SULLIVAN WI
1000 AM CDT THU APR 28 2016

NOTE: "FAIR" INDICATES FEW OR NO CLOUDS BELOW 12,000 FEET WITH NO
SIGNIFICANT WEATHER AND/OR OBSTRUCTIONS TO VISIBILITY.

WIZ001-002-006>008-014>016-023>028-281600-
NORTHWEST WISCONSIN

CITY           SKY/WX    TMP DP  RH WIND       PRES   REMARKS
SUPERIOR ARPT  CLOUDY    40  34  76 NE15G29   30.08S WCI  32
ASHLAND        CLOUDY    43  28  55 NE15      30.07R
HAYWARD        CLOUDY    46  17  31 NE7       30.02R
SIREN          CLOUDY    46  17  32 E7        30.01R
CUMBERLAND     CLOUDY    43  21  42 NE6       30.00R
RICE LAKE      CLOUDY    45  20  36 E9        30.02R
CHETEK         CLOUDY    44  23  43 E5        30.00S
LADYSMITH      CLOUDY    46  21  38 E9        30.01R
EAU CLAIRE     RAIN      37  34  89 NE8       29.98S FOG     WCI  31
MENOMONIE      LGT RAIN  36  36  99 NE9       29.99S WCI  29
NEW RICHMOND   LGT SNOW  35  32  87 NE8       30.00R WCI  29
OSCEOLA        LGT RAIN  37  32  84 NE5       30.03R WCI  33
$$

WIZ003>005-009-010-017-018-281600-
NORTH CENTRAL WISCONSIN

CITY           SKY/WX    TMP DP  RH WIND       PRES   REMARKS
MANITOWISH WTR CLOUDY    42  21  44 E10       30.01S
ARBOR VITAE    CLOUDY    43  22  43 E7        30.00S
WOODRUFF       CLOUDY    43  22  43 E7        30.00S
RHINELANDER    CLOUDY    42  18  37 E10       30.00F
EAGLE RIVER    CLOUDY    42  19  39 E8        30.01S
LAND O LAKES   CLOUDY    44  18  36 E9        30.03S
PHILLIPS       CLOUDY    44  21  40 E9        29.99R
TOMAHAWK       CLOUDY    43  20  39 E6        30.00S
MEDFORD        CLOUDY    42  21  42 E10G17    29.97R
MERRILL        CLOUDY    43  22  42 E10       29.98S
$$

WIZ029-030-035-036-043>047-281600-
CENTRAL WISCONSIN

CITY           SKY/WX    TMP DP  RH WIND       PRES   REMARKS
WAUSAU         CLOUDY    44  21  40 E12       29.96R
MOSINEE        CLOUDY    39  25  56 E16       29.98R WCI  30
MARSHFIELD     LGT RAIN  39  28  64 E12       29.96R WCI  32
STEVENS POINT  CLOUDY    39  25  57 E16       29.98R WCI  30
WAUPACA        LGT RAIN  40  34  79 E6G16     29.99R
WAUTOMA        NOT AVBL
WISC RAPIDS    RAIN      39  30  70 E9        29.99R WCI  33
CAMP DOUGLAS   CLOUDY    41  41 100 E12       29.94R
$$

WIZ011>013-019>022-031-037>040-048>050-281600-
NORTHEAST WISCONSIN

CITY           SKY/WX    TMP DP  RH WIND       PRES   REMARKS
ANTIGO         CLOUDY    41  20  41 E16G23    29.99R
SHAWANO        CLOUDY    45  31  60 NE12G18   30.01R
OCONTO         CLOUDY    43  30  59 E9        30.03R
STURGEON BAY   CLOUDY    43  27  52 NE13G21   30.04S
GREEN BAY      CLOUDY    44  27  51 E14G22    30.00R
MANITOWOC      LGT RAIN  40  32  73 E9G16     30.01R WCI  34
APPLETON       DRIZZLE   39  28  65 E12G17    29.97R WCI  32
CLINTONVILLE   CLOUDY    43  28  56 E12       30.00R
OSHKOSH        LGT RAIN  42  29  59 E13       29.97R
$$

WIZ032>034-041-042-053>061-281600-
SOUTHWEST WISCONSIN

CITY           SKY/WX    TMP DP  RH WIND       PRES   REMARKS
LA CROSSE      CLOUDY    44  32  62 NE7       29.91S
SPARTA         CLOUDY    42  33  70 E9G17     29.94R
VIROQUA        CLOUDY    43  33  69 E16G24    29.88S
BOSCOBEL       CLOUDY    46  36  68 E10       29.88S
PRAIRIE DU CHI CLOUDY    45  36  72 E7        29.86S
PLATTEVILLE    CLOUDY    45  43  93 E17       29.86R
$$

WIZ056-057-062-063-064-067-068-281600-
SOUTH CENTRAL WISCONSIN

CITY           SKY/WX    TMP DP  RH WIND       PRES   REMARKS
REEDSBURG      RAIN      40  36  87 E7        29.92R WCI  35
BARABOO/DELLS  LGT RAIN  39  36  87 NE7       29.92S WCI  34
LONE ROCK      LGT RAIN  43  38  82 E10       29.91R
MINERAL POINT  CLOUDY    45  41  87 E12       29.87R
MADISON        LGT RAIN  41  37  86 E13       29.92R FOG
MIDDLETON      CLOUDY    42  39  90 E10       29.92R
WATERTOWN      LGT RAIN  39  37  92 E16       29.92R WCI  30
MONROE         CLOUDY    41  39  93 E16       29.87S
JANESVILLE     CLOUDY    43  37  81 E14G20    29.90R
$$

WIZ051-052-058>065-066-070>072-281600-
SOUTHEAST WISCONSIN

CITY           SKY/WX    TMP DP  RH WIND       PRES   REMARKS
MILWAUKEE      CLOUDY    40  32  73 E18       29.94R WCI  31
WAUKESHA       CLOUDY    37  30  75 E12G23    29.94R WCI  30
MILWAUKEE/TIMM CLOUDY    39  28  65 E13G18    29.95S WCI  32
RACINE         CLOUDY    40  32  73 E14       29.95R WCI  32
BURLINGTON     CLOUDY    40  33  76 E15G21    29.92R WCI  31
KENOSHA        CLOUDY    41  34  76 E18       29.92R
FOND DU LAC    LGT RAIN  39  32  76 E12       29.96R WCI  32
SHEBOYGAN      CLOUDY    41  30  65 E18G24    29.98F
WEST BEND      CLOUDY    37  32  81 E14G22    29.96R WCI  29
JUNEAU         CLOUDY    39  36  87 E12       29.94R WCI  32
$$

LSZ147-162-281600-
LAKE SUPERIOR

STATION/POSITION TIME  TEMP    WIND        PRES    WAVE
                       AIR SEA DIR/SP/G            HT/PER
                 (UTC) (F)     (DEG/KT/KT) (MB)    (FT/S)
W MID LAKE BUOY  1450   38 36   60/ 17/ 21 1020.4F   3/ 4
DEVILS ISLAND    1500   38      60/ 22/ 24 1020.0S
SAXON HARBOR     1400   39      50/ 14/ 17 1017.6R
$$

LMZ867-665-643>646-281600-
LAKE MICHIGAN

STATION/POSITION TIME  TEMP    WIND        PRES    WAVE
                       AIR SEA DIR/SP/G            HT/PER
                 (UTC) (F)     (DEG/KT/KT) (MB)    (FT/S)
CHAMBERS ISLAND  1400   40      30/  9/ 14 1017.6R
N MID LAKE BUOY  1450   39 38   80/ 17/ 21 1017.7R   3/ 4
NORTHPORT PIER   1400   39      70/ 15/ 20 1017.6S
ALGOMA LAKESHORE 1415           60/ 21/ 25   N/A
KEWAUNEE LAKESHO 1400   40      50/ 11/ 15 1015.3R
SHEBOYGAN LAKESH 1500   39      80/ 13/ 15 1016.1R
PORT WASHINGTON  1400   40      80/ 12/ 17 1015.6R
S MID LAKE BUOY  1450   39 39   90/ 19/ 25 1013.1R   5/ 5
KENOSHA   LAKESH 1500   40      70/ 17/ 21 1013.5R
$$

TC  - TEMPERATURE IN CELSIUS
VSB - VISIBILITY IN STATUTE MILES
WCI - WIND CHILL INDEX
HX  - HEAT INDEX




USA.gov is the U.S. government's official web portal to all federal, state and local government web resources and services.